Retour au catalogue

STARLINK-37930

ActifCommunicationsSSO
NORAD 69668·PAYLOAD·🇺🇸 United States

Lancé Jun 21, 2026 depuis Vandenberg Space Force Base

Loading…

Prochains Passages (prochaines 24 heures)

TLE

FraisSource: CelesTrak SupGP

Époque: Sep 15, 2026, 04:36 UTC

1 69668C 26143V   26258.19215278 -.00042565  00000+0 -13213-2 0  2582
2 69668  97.2836 301.4582 0000800  92.3633 106.0648 15.33462540    18

Suivez STARLINK-37930 en temps réel avec AllMySat

Download on the App Store